Miscellaneous Local Product
Issued by NWS Hastings, NE

Home | Current Version | Previous Version | Graphics & Text | Print | Product List | Glossary On
Versions: 1 2 3 4 5 6 7 8 9 10 11 12 13 14 15 16 17 18 19 20 21 22 23 24 25 26 27 28 29 30 31 32 33 34 35 36 37 38 39 40 41 42 43 44 45 46 47 48 49 50
000
AXUS43 KGID 222202
MISGRI

GID CWA HOURLY WEATHER ROUNDUP
NATIONAL WEATHER SERVICE HASTINGS NE
500 PM CDT WED OCT 22 2014

NOTE: "FAIR" INDICATES FEW OR NO CLOUDS BELOW 12,000 FEET WITH NO
SIGNIFICANT WEATHER AND/OR OBSTRUCTIONS TO VISIBILITY.

...SOUTH CENTRAL NEBRASKA...

CITY           SKY/WX    TMP DP  RH WIND       PRES   REMARKS
GRAND ISLAND   HVY RAIN  62  59  90 S12       30.00F FOG
HASTINGS       CLOUDY    62  58  86 S7        29.99F
KEARNEY        CLOUDY    63  59  88 W3        30.01S
ORD            CLOUDY    62  57  83 CALM      30.00S
YORK           HVY RAIN  63  59  88 W12       30.02R
AURORA         RAIN      61  61 100 W6        30.01S
LEXINGTON      MOSUNNY   67  56  67 CALM      30.00S
HOLDREGE       CLOUDY    64  57  78 CALM      30.00S
HEBRON         LGT RAIN  71  53  52 S8        29.99R

...NEBRASKA PANHANDLE...

CITY           SKY/WX    TMP DP  RH WIND       PRES   REMARKS
CHADRON        SUNNY     64  31  28 NW9       30.02S
ALLIANCE       SUNNY     64  34  32 NW8       30.03F
SCOTTSBLUFF    MOSUNNY   67  28  23 NW12      30.02F
SIDNEY         MOSUNNY   66  33  29 N10       30.06S

...WESTERN AND NORTH CENTRAL NEBRASKA...

CITY           SKY/WX    TMP DP  RH WIND       PRES   REMARKS
VALENTINE      SUNNY     66  41  40 NW12      30.00S
AINSWORTH      MOSUNNY   63  46  53 W3        30.01S
ONEILL         CLOUDY    58  54  85 NW6       30.00S
BROKEN BOW     CLOUDY    65  55  70 N5        30.01R
IMPERIAL       SUNNY     71  44  37 N8        30.02R
NORTH PLATTE   SUNNY     70  49  47 CALM      29.99F
MCCOOK         SUNNY     71  51  49 NE9       30.00S

...EASTERN NEBRASKA...

CITY           SKY/WX    TMP DP  RH WIND       PRES   REMARKS
NORFOLK        RAIN      61  59  93 W5        30.00R FOG
SO SIOUX CITY  CLOUDY    73  53  49 S14G24    29.94F
TEKAMAH        PTSUNNY   74  54  49 SE18G29   29.96F
COLUMBUS       CLOUDY    63  57  82 W14G20    30.02R
ALBION         RAIN      59  57  94 CALM      30.00S
OMAHA EPPLEY   PTSUNNY   74  54  49 SE20      29.99S
OFFUTT AFB     MOSUNNY   75  56  53 SE16      29.99S
MILLARD        MOSUNNY   75  56  52 SE15      29.98S
LINCOLN        MOSUNNY   77  51  40 S21       29.97S
NEBRASKA CITY  MOSUNNY   74  49  40 S16       30.01F
BEATRICE       PTSUNNY   76  53  43 S20G26    29.99S
FALLS CITY     LGT RAIN  76  56  49 SE16      30.02F

...NORTHERN KANSAS...

CITY           SKY/WX    TMP DP  RH WIND       PRES   REMARKS
GOODLAND       SUNNY     73  45  36 NE6       30.03R
HILL CITY      CLOUDY    72  57  59 VRB6G21   29.96S THUNDER
NORTON         MOCLDY    70  54  56 W9        29.97S
PHILLIPSBURG   TSTM      68  61  77 W13       29.98R
SMITH CENTER   CLOUDY    68  55  64 S17       29.98S
BELOIT         CLOUDY    75  52  43 S17G29    29.97R
HAYS           CLOUDY    70  54  56 S22       29.99S
RUSSELL        CLOUDY    67  55  65 S24       29.99S
CONCORDIA      CLOUDY    74  53  48 S16G25    29.99S
SALINA         PTSUNNY   75  52  44 S15G21    30.01F
TOPEKA         SUNNY     77  59  53 SE13      30.05F



USA.gov is the U.S. government's official web portal to all federal, state and local government web resources and services.